Hourly Data Report for October 05, 2016

All times are specified in Local Standard Time (LST). Add 1 hour to adjust for Daylight Saving Time where and when it is observed.

BATHURST A
NEW BRUNSWICK

47°37'47.000" N
65°44'20.000" W
58.80 m
8100505
71574
ZBF

Download Data

Hourly Data (October 2016)
Hourly Data Report for October 5, 2016
Temp Definition
°C
Dew Point Temp Definition
°C
Rel Hum Definition
%
Wind Dir Definition
10's deg

Wind Spd Definition
km/h
Visibility Definition
km
Stn Press Definition
kPa
Hmdx Definition


Wind Chill Definition


Weather Definition


TIME
00:00 Legend Double Dagger 2.4 1.4 93 22 9 24.1 101.89     LegendNANA
01:00 Legend Double Dagger 2.8 2.2 96 22 5 24.1 101.88     LegendNANA
02:00 Legend Double Dagger 1.8 1.4 97 36 3 24.1 101.88     Clear
03:00 Legend Double Dagger 0.9 0.5 97 22 6 24.1 101.86     LegendNANA
04:00 Legend Double Dagger 2.6 2.3 98 24 9 24.1 101.84     LegendNANA
05:00 Legend Double Dagger 2.3 2.0 98 21 5 24.1 101.86     Clear
06:00 Legend Double Dagger 2.6 2.3 98 21 5 24.1 101.86     LegendNANA
07:00 Legend Double Dagger 7.1 6.7 97 26 10 24.1 101.86     LegendNANA
08:00 Legend Double Dagger 10.3 7.9 85 27 8 24.1 101.87     Clear
09:00 Legend Double Dagger 13.5 8.4 71 27 13 24.1 101.88     LegendNANA
10:00 Legend Double Dagger 16.1 8.7 61 29 8 24.1 101.86     LegendNANA
11:00 Legend Double Dagger 18.2 8.8 54 32 8 24.1 101.82     Clear
12:00 Legend Double Dagger 19.9 9.0 49 31 3 24.1 101.76     LegendNANA
13:00 Legend Double Dagger 21.0 9.7 48 26 12 24.1 101.68     LegendNANA
14:00 Legend Double Dagger 21.4 11.0 51 11 7 24.1 101.60     Clear
15:00 Legend Double Dagger 22.5 9.8 44 24 7 24.1 101.55     LegendNANA
16:00 Legend Double Dagger 22.0 9.4 44 27 12 24.1 101.51     LegendNANA
17:00 Legend Double Dagger 19.9 9.9 52 25 13 24.1 101.52     Clear
18:00 Legend Double Dagger 18.2 9.9 58 28 12 24.1 101.53     LegendNANA
19:00 Legend Double Dagger 15.1 9.7 70 26 9 24.1 101.54     LegendNANA
20:00 Legend Double Dagger 12.5 9.5 82 26 13 24.1 101.56     Clear
21:00 Legend Double Dagger 11.5 8.7 83 26 10 24.1 101.57     LegendNANA
22:00 Legend Double Dagger 11.8 8.7 81 28 9 24.1 101.58     LegendNANA
23:00 Legend Double Dagger 10.1 7.9 86 26 7 24.1 101.58     Clear

Notes on Data Quality.

Legend

  • E = Estimated
  • M = Missing
  • NA = Not Available
  • ‡ = Partner data that is not subject to review by the National Climate Archives
Date modified: